Lid_Strength_Index
3 2 1 1 1 1 1 1 1 2 2 3 3 3 4 4 5 2 1 0 -1 -2 -2 -2 -2 -2 -1 -1 -1 -1 -1 -1 -1 -1 -1 -1 -1 -1 -1 -1 -1 -1 -2
3 2 2 2 2 2 2 1 1 1 2 3 3 3 4 5 5 5 2 1 -1 -1 -2 -2 -2 -2 -2 -2 -1 -1 -1 -1 -1 -1 -1 -1 -1 -1 -1 -1 -1 -1 -1
3 4 4 3 3 2 2 2 2 2 2 2 3 3 4 6 6 6 5 3 1 -1 -1 -2 -2 -2 -2 -2 -2 -2 -0 -1 -1 -1 -1 -1 -1 -1 -1 -0 -1 -1 -0
3 4 4 4 3 3 3 3 3 3 3 3 3 3 4 5 6 7 7 4 3 1 -1 -2 -2 -2 -2 -2 -2 -2 -1 -1 -0 -1 -1 -1 -0 -0 -0 -0 0 0 -0
1 3 4 4 4 4 4 4 5 4 4 4 4 3 4 5 6 6 8 7 4 2 2 0 -1 -1 -2 -2 -2 -2 -1 -1 -0 -0 0 -0 -0 -0 -0 0 0 0 0
1 3 3 4 4 5 5 5 5 5 4 4 4 4 5 5 6 8 7 8 5 4 3 3 2 0 -1 -2 -2 -2 -2 -1 -0 0 0 1 0 0 0 0 0 1 0
3 4 3 3 3 4 4 4 4 5 5 6 7 6 7 7 7 7 8 8 7 5 4 3 3 3 2 -1 -2 -2 -2 -2 -1 -0 0 1 1 1 1 1 1 1 1
2 2 3 4 4 4 4 4 4 5 5 6 5 7 5 5 7 7 8 8 8 7 4 4 4 4 3 3 1 -1 -2 -1 -2 -1 0 1 1 1 1 1 1 1 1
3 3 3 2 3 4 4 4 4 4 4 6 6 4 6 7 7 6 7 8 9 9 7 5 4 3 4 3 2 0 -1 -2 -1 -2 -1 0 1 1 1 1 2 1 1
5 3 2 1 2 3 4 4 4 4 5 4 7 6 6 6 6 6 6 7 7 8 7 7 4 3 3 3 2 2 1 -0 -1 -1 -2 -0 0 2 1 1 2 2 2
5 5 4 4 1 1 1 2 4 4 5 4 6 6 6 5 6 6 6 4 6 6 7 6 6 4 4 4 3 3 1 0 -1 -1 -1 -1 -1 0 1 1 2 2 2
6 6 6 6 4 3 1 1 1 3 4 4 4 3 3 4 4 6 6 6 5 4 7 6 6 5 6 5 4 3 2 0 -1 -1 -2 -1 -0 2 2 1 2 2 3
8 8 7 6 6 5 2 2 3 3 3 3 3 3 2 2 3 3 4 4 4 5 7 7 7 8 7 7 6 2 1 -0 -1 -1 -2 -1 1 2 2 2 2 2 2
8 8 7 7 8 7 5 2 1 2 2 3 3 3 2 2 2 2 3 4 5 7 8 8 10 10 9 8 6 3 4 1 -0 -1 -2 -1 1 2 2 2 2 3 3
9 9 9 10 10 9 8 6 5 4 4 5 5 4 3 5 5 5 4 4 4 6 7 9 9 11 10 7 6 6 5 3 2 0 0 1 2 2 2 3 3 4 4
11 11 11 11 11 10 9 9 9 8 7 6 6 7 7 7 7 8 7 6 6 6 7 9 10 10 9 7 6 7 6 4 3 2 2 3 4 4 4 5 5 5 5
12 12 12 12 11 11 11 11 10 10 8 8 8 8 9 8 9 8 8 8 8 8 9 10 11 11 11 10 9 8 8 8 8 6 5 5 5 5 6 6 6 6 6
13 12 11 12 12 12 12 12 12 12 12 12 11 11 10 9 10 10 9 10 10 10 10 10 12 12 12 11 10 10 9 9 9 8 7 7 7 7 7 6 6 6 7
12 12 12 12 12 12 12 12 12 11 11 11 11 11 11 11 12 11 11 11 11 11 11 11 12 12 12 11 12 11 10 10 10 9 8 8 7 7 7 7 7 7 7
11 10 10 10 11 13 13 12 11 11 11 11 11 10 10 11 12 12 13 14 13 13 12 12 12 12 12 11 11 12 12 11 12 11 10 10 10 10 10 9 8 8 7
10 10 10 10 10 11 11 12 12 12 12 13 13 12 11 10 8 9 12 13 14 14 14 13 13 13 13 13 13 13 13 14 13 14 14 14 14 14 14 11 11 9 8
11 11 11 11 10 10 10 11 13 14 16 16 17 16 14 13 13 10 10 10 11 15 16 18 19 17 17 17 17 17 19 19 19 16 16 16 15 15 15 14 11 9 9
13 14 14 13 14 13 11 12 13 18 19 20 20 19 16 14 14 15 13 12 13 11 12 16 17 18 18 17 19 19 18 19 19 17 16 17 16 16 15 14 10 9 8
15 16 16 16 16 14 12 12 14 22 22 21 19 17 17 16 14 15 16 16 16 16 15 15 16 17 17 16 16 18 19 18 17 16 16 21 17 16 16 15 11 10 9
17 19 19 20 19 17 12 13 16 18 18 18 17 17 16 16 12 12 16 17 17 17 14 13 13 12 12 12 13 16 19 21 20 18 17 18 18 18 16 16 15 10 9
18 19 18 20 14 17 12 12 15 17 19 17 18 17 13 14 12 12 16 18 19 19 17 17 17 17 16 16 13 16 19 24 24 22 17 20 19 19 20 17 16 15 14